TimeMDT,TemperatureF,Dew PointF,Humidity,Sea Level PressureIn,VisibilityMPH,Wind Direction,Wind SpeedMPH,Gust SpeedMPH,PrecipitationIn,Events,Conditions,WindDirDegrees,DateUTC
12:15 AM,46.4,35.6,66,29.94,10.0,Calm,Calm,-,N/A,,Overcast,0,2012-10-14 06:15:00
12:35 AM,46.4,37.4,71,29.94,10.0,South,4.6,-,N/A,,Overcast,180,2012-10-14 06:35:00
12:55 AM,46.4,37.4,71,29.94,10.0,South,4.6,-,N/A,,Overcast,190,2012-10-14 06:55:00
1:15 AM,46.4,37.4,71,29.94,10.0,South,4.6,-,N/A,,Overcast,170,2012-10-14 07:15:00
1:35 AM,46.4,37.4,71,29.95,10.0,South,4.6,-,N/A,,Overcast,190,2012-10-14 07:35:00
1:55 AM,48.2,37.4,66,29.95,10.0,WSW,6.9,-,N/A,,Overcast,250,2012-10-14 07:55:00
2:35 AM,48.2,37.4,66,29.96,10.0,WNW,3.5,-,N/A,,Mostly Cloudy,300,2012-10-14 08:35:00
2:55 AM,46.4,37.4,71,29.96,10.0,NW,6.9,-,N/A,,Clear,320,2012-10-14 08:55:00
3:15 AM,44.6,37.4,76,29.95,10.0,West,10.4,-,N/A,,Clear,280,2012-10-14 09:15:00
3:35 AM,48.2,39.2,71,29.95,10.0,West,13.8,-,N/A,,Clear,280,2012-10-14 09:35:00
3:55 AM,48.2,39.2,71,29.95,10.0,WNW,13.8,-,N/A,,Clear,290,2012-10-14 09:55:00
4:15 AM,48.2,37.4,66,29.96,10.0,WNW,12.7,-,N/A,,Clear,290,2012-10-14 10:15:00
4:35 AM,48.2,37.4,66,29.97,10.0,West,12.7,18.4,N/A,,Clear,280,2012-10-14 10:35:00
4:55 AM,48.2,37.4,66,29.97,10.0,WNW,12.7,-,N/A,,Clear,290,2012-10-14 10:55:00
5:15 AM,46.4,37.4,71,29.98,10.0,West,12.7,-,N/A,,Clear,280,2012-10-14 11:15:00
5:35 AM,46.4,37.4,71,29.99,10.0,West,12.7,-,N/A,,Clear,280,2012-10-14 11:35:00
5:55 AM,46.4,37.4,71,29.99,10.0,WNW,12.7,-,N/A,,Clear,290,2012-10-14 11:55:00
6:15 AM,48.2,37.4,66,29.99,10.0,WNW,15.0,-,N/A,,Clear,290,2012-10-14 12:15:00
6:35 AM,48.2,37.4,66,30.00,10.0,WNW,11.5,-,N/A,,Clear,300,2012-10-14 12:35:00
6:55 AM,46.4,37.4,71,29.99,10.0,NW,11.5,-,N/A,,Clear,310,2012-10-14 12:55:00
7:15 AM,46.4,37.4,71,29.99,10.0,WNW,10.4,-,N/A,,Clear,290,2012-10-14 13:15:00
7:35 AM,46.4,35.6,66,29.99,10.0,WNW,9.2,-,N/A,,Clear,290,2012-10-14 13:35:00
7:55 AM,46.4,35.6,66,29.99,10.0,WNW,5.8,-,N/A,,Clear,290,2012-10-14 13:55:00
8:15 AM,50.0,37.4,62,30.00,10.0,West,11.5,-,N/A,,Clear,270,2012-10-14 14:15:00
8:55 AM,50.0,37.4,62,30.00,10.0,West,13.8,-,N/A,,Clear,270,2012-10-14 14:55:00
9:15 AM,51.8,37.4,58,30.00,10.0,West,11.5,-,N/A,,Clear,270,2012-10-14 15:15:00
9:35 AM,55.4,39.2,54,30.01,10.0,West,16.1,-,N/A,,Clear,280,2012-10-14 15:35:00
9:55 AM,59.0,39.2,48,30.00,10.0,WNW,17.3,25.3,N/A,,Clear,290,2012-10-14 15:55:00
10:15 AM,60.8,37.4,42,30.00,10.0,WNW,19.6,26.5,N/A,,Clear,300,2012-10-14 16:15:00
10:35 AM,60.8,37.4,42,29.99,10.0,WNW,20.7,28.8,N/A,,Clear,300,2012-10-14 16:35:00
10:55 AM,60.8,37.4,42,29.99,10.0,NW,21.9,25.3,N/A,,Clear,310,2012-10-14 16:55:00
11:15 AM,62.6,37.4,39,29.98,10.0,WNW,23.0,28.8,N/A,,Clear,300,2012-10-14 17:15:00
11:35 AM,62.6,37.4,39,29.98,10.0,WNW,20.7,29.9,N/A,,Clear,300,2012-10-14 17:35:00
11:55 AM,64.4,39.2,40,29.98,10.0,WNW,18.4,26.5,N/A,,Clear,290,2012-10-14 17:55:00
12:15 PM,64.4,37.4,37,29.98,10.0,WNW,20.7,26.5,N/A,,Clear,300,2012-10-14 18:15:00
12:35 PM,64.4,37.4,37,29.97,10.0,WNW,23.0,27.6,N/A,,Clear,290,2012-10-14 18:35:00
12:55 PM,66.2,37.4,35,29.97,10.0,WNW,18.4,23.0,N/A,,Clear,290,2012-10-14 18:55:00
1:15 PM,66.2,37.4,35,29.97,10.0,WNW,21.9,28.8,N/A,,Clear,290,2012-10-14 19:15:00
1:35 PM,68.0,37.4,33,29.96,10.0,WNW,20.7,27.6,N/A,,Clear,290,2012-10-14 19:35:00
1:55 PM,68.0,37.4,33,29.95,10.0,WNW,18.4,28.8,N/A,,Clear,300,2012-10-14 19:55:00
2:15 PM,66.2,37.4,35,29.95,10.0,NW,19.6,26.5,N/A,,Clear,310,2012-10-14 20:15:00
2:55 PM,68.0,35.6,30,29.94,10.0,WNW,16.1,24.2,N/A,,Clear,300,2012-10-14 20:55:00
3:15 PM,68.0,35.6,30,29.94,10.0,West,19.6,24.2,N/A,,Clear,280,2012-10-14 21:15:00
3:35 PM,68.0,35.6,30,29.94,10.0,WNW,11.5,23.0,N/A,,Clear,290,2012-10-14 21:35:00
3:55 PM,68.0,33.8,28,29.93,10.0,WNW,16.1,20.7,N/A,,Clear,290,2012-10-14 21:55:00
4:15 PM,64.4,33.8,32,29.94,10.0,West,11.5,-,N/A,,Clear,280,2012-10-14 22:15:00
4:35 PM,62.6,33.8,34,29.94,10.0,WNW,8.1,-,N/A,,Clear,300,2012-10-14 22:35:00
4:55 PM,60.8,33.8,36,29.93,10.0,WNW,6.9,-,N/A,,Clear,290,2012-10-14 22:55:00
5:15 PM,62.6,35.6,37,29.93,10.0,WNW,4.6,-,N/A,,Clear,300,2012-10-14 23:15:00
5:36 PM,62.6,35.6,37,29.93,10.0,WNW,3.5,-,N/A,,Clear,290,2012-10-14 23:36:00
5:55 PM,62.6,35.6,37,29.93,10.0,WNW,3.5,-,N/A,,Mostly Cloudy,290,2012-10-14 23:55:00
6:15 PM,60.8,33.8,36,29.91,10.0,Calm,Calm,-,N/A,,Overcast,0,2012-10-15 00:15:00
6:35 PM,60.8,33.8,36,29.91,10.0,Calm,Calm,-,N/A,,Overcast,0,2012-10-15 00:35:00
6:55 PM,60.8,35.6,39,29.90,10.0,Calm,Calm,-,N/A,,Overcast,0,2012-10-15 00:55:00
7:15 PM,60.8,35.6,39,29.90,10.0,South,4.6,-,N/A,,Overcast,180,2012-10-15 01:15:00
7:35 PM,57.2,35.6,44,29.89,10.0,SE,6.9,-,N/A,,Overcast,140,2012-10-15 01:35:00
7:55 PM,57.2,35.6,44,29.89,10.0,SSE,6.9,-,N/A,,Partly Cloudy,160,2012-10-15 01:55:00
8:15 PM,55.4,35.6,47,29.88,10.0,South,6.9,-,N/A,,Mostly Cloudy,170,2012-10-15 02:15:00
8:35 PM,53.6,35.6,51,29.88,10.0,South,6.9,-,N/A,,Scattered Clouds,180,2012-10-15 02:35:00
8:55 PM,53.6,35.6,51,29.87,10.0,South,8.1,-,N/A,,Clear,180,2012-10-15 02:55:00
9:15 PM,55.4,37.4,51,29.87,10.0,South,8.1,-,N/A,,Mostly Cloudy,170,2012-10-15 03:15:00
9:35 PM,55.4,35.6,47,29.86,10.0,South,8.1,-,N/A,,Mostly Cloudy,180,2012-10-15 03:35:00
9:55 PM,55.4,35.6,47,29.86,10.0,South,10.4,-,N/A,,Mostly Cloudy,180,2012-10-15 03:55:00
10:15 PM,55.4,37.4,51,29.86,10.0,South,5.8,-,N/A,,Mostly Cloudy,180,2012-10-15 04:15:00
10:35 PM,55.4,37.4,51,29.86,10.0,SSW,5.8,-,N/A,,Mostly Cloudy,200,2012-10-15 04:35:00
10:55 PM,55.4,35.6,47,29.85,10.0,South,8.1,-,N/A,,Overcast,170,2012-10-15 04:55:00
11:15 PM,55.4,35.6,47,29.84,10.0,South,10.4,-,N/A,,Overcast,180,2012-10-15 05:15:00
11:35 PM,55.4,35.6,47,29.84,10.0,South,6.9,-,N/A,,Overcast,180,2012-10-15 05:35:00
11:55 PM,53.6,35.6,51,29.82,10.0,South,8.1,-,N/A,,Overcast,170,2012-10-15 05:55:00